Terminal Aerodrome Forecast
Issued by NWS Raleigh/Durham, NC

Home | Current Version | Previous Version | Text Only | Print | Product List | Glossary On
Versions: 1 2 3 4 5 6 7 8 9 10 11 12 13 14 15 16 17 18 19 20 21 22 23 24 25 26 27 28 29 30 31 32 33 34 35 36 37 38 39 40 41 42 43 44 45 46 47 48 49 50
000
FTUS42 KRAH 231213 AAA
TAFFAY
TAF AMD
KFAY 231213Z 2312/2412 24006KT P6SM BKN006
      TEMPO 2312/2313 4SM BR OVC004
     FM231400 24005KT P6SM SCT015
     FM231800 24008KT P6SM VCSH BKN050
     FM232300 24009KT P6SM SCT040 BKN070 BKN120
     FM241100 24005KT P6SM BKN040 BKN080=

USA.gov is the U.S. government's official web portal to all federal, state and local government web resources and services.